Weather History for Barking Sands, HI

Change the Weather History Date:

Saturday, February 9, 2013

  Actual Average Record
Temperature  
Mean Temperature 72 °F -  
Max Temperature 79 °F 81 °F 86 °F (1958)
Min Temperature 66 °F 60 °F 54 °F (1978)
Cooling Degree Days 8    
Growing Degree Days 22 (Base 50)    
Moisture  
Dew Point 63 °F    
Average Humidity 73    
Maximum Humidity 94    
Minimum Humidity 52    
Precipitation  
Precipitation 0.00 in - - ()
Sea Level Pressure  
Sea Level Pressure 30.11 in    
Wind  
Wind Speed 4 mph (NE)    
Max Wind Speed 9 mph    
Max Gust Speed -    
Visibility 10 miles    
Events      
Averages and records for this station are not official NWS values.
T = Trace of Precipitation, MM = Missing Value Source: NWS Daily Summary

Daily Weather History Graph

Daily Weather History Graph

Search for Another Location

Airport:

Trip Planner

Search our weather history database for the weather conditions in past years. The results will help you decide how hot, cold, wet, or windy it might be!

Date:

Astronomy

Feb. 09, 2013 Rise Set
Actual Time 7:13 AM HST 6:33 PM HST
Civil Twilight 6:50 AM HST 6:56 PM HST
Nautical Twilight 6:24 AM HST 7:22 PM HST
Astronomical Twilight 5:57 AM HST 7:49 PM HST
Moon 6:35 AM HST (2/9) 6:23 PM HST (2/9)
Length of Visible Light 12h 05m
Length of Day
11h 19m
Waning Crescent, 0% of the Moon is Illuminated
Feb 9
Waning Crescent
Feb 9
New
Feb 17
First Quarter
Feb 25
Full
Mar 4
Last Quarter

Hourly Weather History & Observations

Time (HST) Temp. Dew Point Humidity Pressure Visibility Wind Dir Wind Speed Gust Speed Precip Events Conditions
12:56 AM 66.9 °F 62.1 °F 84% 30.11 in 10.0 mi East 3.5 mph - N/A   Scattered Clouds
1:04 AM 66.2 °F 60.8 °F 83% 30.10 in 10.0 mi Calm Calm - N/A   Mostly Cloudy
1:20 AM 66.2 °F 64.4 °F 94% 30.10 in 10.0 mi East 5.8 mph - N/A   Scattered Clouds
1:56 AM 66.9 °F 64.0 °F 90% 30.10 in 10.0 mi East 5.8 mph - N/A   Clear
2:30 AM 68.0 °F 64.4 °F 88% 30.09 in 10.0 mi ENE 4.6 mph - N/A   Mostly Cloudy
2:56 AM 68.0 °F 61.0 °F 78% 30.09 in 10.0 mi East 3.5 mph - N/A   Mostly Cloudy
3:56 AM 68.0 °F 61.0 °F 78% 30.09 in 10.0 mi ENE 4.6 mph - N/A   Overcast
4:56 AM 68.0 °F 63.0 °F 84% 30.10 in 10.0 mi ENE 4.6 mph - N/A   Mostly Cloudy
5:11 AM 66.2 °F 59.0 °F 78% 30.09 in 10.0 mi ENE 3.5 mph - N/A   Scattered Clouds
5:56 AM 66.9 °F 62.1 °F 84% 30.11 in 10.0 mi East 6.9 mph - N/A   Scattered Clouds
6:56 AM 66.9 °F 59.0 °F 76% 30.13 in 10.0 mi ENE 4.6 mph - N/A   Clear
7:56 AM 68.0 °F 61.0 °F 78% 30.14 in 10.0 mi ENE 5.8 mph - N/A   Clear
8:56 AM 73.9 °F 66.0 °F 76% 30.14 in 10.0 mi Calm Calm - N/A   Clear
9:56 AM 75.0 °F 63.0 °F 66% 30.15 in 10.0 mi WNW 4.6 mph - N/A   Clear
10:56 AM 75.9 °F 62.1 °F 62% 30.14 in 10.0 mi West 4.6 mph - N/A   Clear
11:56 AM 77.0 °F 61.0 °F 58% 30.13 in 10.0 mi WNW 5.8 mph - N/A   Clear
12:56 PM 78.1 °F 60.1 °F 54% 30.11 in 10.0 mi SW 9.2 mph - N/A   Clear
1:56 PM 79.0 °F 64.0 °F 60% 30.08 in 10.0 mi SW 8.1 mph - N/A   Clear
2:56 PM 79.0 °F 60.1 °F 52% 30.08 in 10.0 mi North 8.1 mph - N/A   Overcast
3:52 PM 78.8 °F 60.8 °F 54% 30.06 in 10.0 mi NNW 4.6 mph - N/A   Scattered Clouds
3:56 PM 79.0 °F 62.1 °F 56% 30.07 in 10.0 mi NW 3.5 mph - N/A   Partly Cloudy
4:56 PM 79.0 °F 62.1 °F 56% 30.08 in 10.0 mi SSW 6.9 mph - N/A   Mostly Cloudy
5:56 PM 77.0 °F 62.1 °F 60% 30.09 in 10.0 mi SSW 5.8 mph - N/A   Partly Cloudy
6:56 PM 75.0 °F 64.0 °F 69% 30.11 in 10.0 mi Calm Calm - N/A   Mostly Cloudy
7:03 PM 75.2 °F 64.4 °F 69% 30.11 in 10.0 mi North 3.5 mph - N/A   Mostly Cloudy
7:18 PM 75.2 °F 66.2 °F 73% 30.11 in 10.0 mi Calm Calm - N/A   Scattered Clouds
7:56 PM 73.0 °F 64.0 °F 73% 30.13 in 10.0 mi NNE 6.9 mph - N/A   Clear
8:56 PM 71.1 °F 62.1 °F 73% 30.14 in 10.0 mi ENE 3.5 mph - N/A   Clear
9:56 PM 72.0 °F 66.9 °F 84% 30.15 in 10.0 mi Calm Calm - N/A   Clear
10:56 PM 70.0 °F 63.0 °F 78% 30.16 in 10.0 mi Calm Calm - N/A   Scattered Clouds
11:56 PM 70.0 °F 64.0 °F 81% 30.16 in 10.0 mi Calm Calm - N/A   Overcast